Home   Weather   Ulm   Past weeks

Flag for Germany Past Weather in Ulm, Baden-Württemberg, Germany — Yesterday and Last 2 Weeks

Now
52 °F

Fog.


Feels Like: 51 °F
Forecast: 46 / 69 °F
Wind: 5 mph from South

Location: Laupheim Airport

Current Time: Sep 27, 2016 at 5:35:26 AM

Latest Report: Sep 27, 2016 at 4:20 AM


Visibility: 1 mi

Pressure: 30.21 "Hg

Humidity: 94%

Dew Point: 50 °F

Location of UlmLocation

Past Weather in Ulm — Graph

°F

Ulm Temperature Yesterday

Maximum temperature yesterday: 70 °F (at 3:20 PM)
Minimum temperature yesterday: 54 °F (at 4:20 AM)
Average temperature yesterday: 60 °F

High & Low Weather Summary for the Past Weeks

 TemperatureHumidityPressure
High82 °F (Sep 12, 3:20 PM)100% (Sep 12, 6:20 AM)30.33 "Hg (Sep 12, 6:20 AM)
Low39 °F (Sep 22, 5:20 AM)37% (Sep 13, 3:20 PM)29.86 "Hg (Sep 15, 4:20 AM)
Average58 °F80%30.08 "Hg
* Reported Sep 12 3:20 AM — Sep 27 3:20 AM, Ulm, Weather by CustomWeather, © 2016

Note: Actual official high and low records may vary slightly from our data, if they occured in-between our weather recording intervals... More about our weather records

Advertising

Ulm Weather History for the Previous 24 Hours

Scroll right to see more
 ConditionsComfort  
Time TempWeatherWind HumidityBarometerVisibility
3:20 AM
Tue, Sep 27
52 °FFog.No wind94%30.21 "Hg1 mi
2:20 AM52 °FFog.No wind100%30.21 "Hg0 mi
1:20 AM52 °FFog.2 mph100%30.21 "Hg0 mi
12:20 AM54 °FFog.No wind100%30.21 "Hg0 mi
11:20 PM
Mon, Sep 26
54 °FFog.1 mph100%30.21 "Hg2 mi
10:20 PM55 °FFog.1 mph100%30.21 "Hg2 mi
9:20 PM57 °FCool.5 mph94%30.18 "HgN/A
8:20 PM59 °FPassing clouds.5 mph88%30.18 "HgN/A
7:20 PM63 °FPassing clouds.6 mph77%30.15 "HgN/A
6:20 PM66 °FPassing clouds.9 mph64%30.15 "HgN/A
5:20 PM68 °FPassing clouds.10 mph60%30.15 "HgN/A
4:20 PM70 °FPassing clouds.8 mph53%30.15 "HgN/A
3:20 PM70 °FPassing clouds.6 mph53%30.15 "HgN/A
2:20 PM68 °FPassing clouds.6 mph60%30.15 "HgN/A
1:20 PM68 °FPassing clouds.6 mph60%30.18 "HgN/A
12:20 PM64 °FPassing clouds.5 mph68%30.18 "HgN/A
11:20 AM64 °FPassing clouds.2 mph68%30.18 "HgN/A
10:20 AM61 °FScattered clouds.2 mph77%30.18 "HgN/A
9:20 AM59 °FScattered clouds.2 mph82%30.18 "HgN/A
8:20 AM55 °FPartly sunny.2 mph88%30.18 "HgN/A
7:20 AM54 °FPartly sunny.2 mph88%30.18 "HgN/A
6:20 AM54 °FPassing clouds.2 mph94%30.18 "HgN/A
5:20 AM54 °FPassing clouds.2 mph88%30.18 "HgN/A
Weather by CustomWeather, © 2016

See weather overviewHow to use our weather pages